This is the latest recevied weather packets stored in our database for station/object KA1JKB. If no packets are shown the sender has not sent any weather packets the latest 10 day(s).
| Time | Temp. | Humidity | Pressure | Rain* | Wind** | Luminosity | Snow |
|---|---|---|---|---|---|---|---|
| 1777382107 | 16.11° C | 93% | 1005.4 hPa | 0 mm | - | 108 W/m² | - |
| 1777381804 | 16.11° C | 93% | 1005.5 hPa | 0 mm | - | 50 W/m² | - |
| 1777381502 | 16.11° C | 93% | 1005.2 hPa | 0 mm | - | 117 W/m² | - |
| 1777381199 | 16.11° C | 93% | 1005.3 hPa | 0 mm | - | 98 W/m² | - |
| 1777380896 | 16.67° C | 93% | 1005.1 hPa | 0 mm | - | 101 W/m² | - |
| 1777380593 | 16.11° C | 93% | 1005 hPa | 0 mm | - | 175 W/m² | - |
| 1777380289 | 16.11° C | 93% | 1005 hPa | 0 mm | - | 126 W/m² | - |
| 1777379985 | 16.67° C | 94% | 1005 hPa | 0 mm | - | 141 W/m² | - |
| 1777379682 | 16.11° C | 95% | 1004.9 hPa | 0 mm | - | 201 W/m² | - |
| 1777379377 | 15.56° C | 96% | 1005 hPa | 0 mm | - | 137 W/m² | - |
| 1777379073 | 15.56° C | 98% | 1004.8 hPa | 0 mm | - | 118 W/m² | - |
| 1777378767 | 15.56° C | 99% | 1004.8 hPa | 0 mm | - | 124 W/m² | - |
| 1777378465 | 15.56° C | 99% | 1004.7 hPa | 0 mm | - | 118 W/m² | - |
| 1777378160 | 15° C | 99% | 1004.6 hPa | 0 mm | - | 49 W/m² | - |
| 1777377859 | 15° C | 99% | 1004.7 hPa | 0 mm | - | 26 W/m² | - |
| 1777377559 | 15° C | 99% | 1004.6 hPa | 0 mm | - | 30 W/m² | - |
| 1777377254 | 15° C | 99% | 1004.4 hPa | 0 mm | - | 20 W/m² | - |
| 1777376952 | 15° C | 99% | 1004.4 hPa | 0 mm | - | 23 W/m² | - |
| 1777376649 | 15° C | 99% | 1004.2 hPa | 0 mm | - | 23 W/m² | - |
| 1777376346 | 15° C | 99% | 1004.2 hPa | 0 mm | - | 26 W/m² | - |
| 1777376041 | 15° C | 99% | 1004.2 hPa | 0 mm | - | 28 W/m² | - |
| 1777375741 | 15° C | 99% | 1004.1 hPa | 0 mm | - | 13 W/m² | - |
| 1777375436 | 15° C | 99% | 1004.1 hPa | 0 mm | - | 18 W/m² | - |
| 1777375133 | 15° C | 99% | 1004.2 hPa | 0 mm | - | 8 W/m² | - |
| 1777374832 | 15° C | 99% | 1004.2 hPa | 0 mm | - | 4 W/m² | - |
* Rain latest hour (hover to see other rain measurements)
** Current wind speed in m/s (hover to see current wind gust speed)